Time,TemperatureF,DewpointF,PressureIn,WindDirection,WindDirectionDegrees,WindSpeedMPH,WindSpeedGustMPH,Humidity,HourlyPrecipIn,Conditions,Clouds,dailyrainin,SoftwareType,DateUTC
2013-03-03 03:15:00,44.2,36.9,-100.00,NE,45,3.0,-999.0,75,-99.99,,,0.00,meteohub,2013-03-03 01:15:00,
2013-03-03 03:21:00,44.2,36.9,-100.00,NE,45,4.0,7.0,75,0.00,,,0.00,meteohub,2013-03-03 01:21:00,
2013-03-03 03:26:00,44.2,36.9,-100.00,NE,45,4.0,8.0,75,0.00,,,0.00,meteohub,2013-03-03 01:26:00,
2013-03-03 03:32:00,44.2,37.2,-100.00,NE,45,3.0,8.0,76,0.00,,,0.00,meteohub,2013-03-03 01:32:00,
2013-03-03 03:37:00,44.1,37.0,-100.00,NE,45,2.0,6.0,76,0.00,,,0.00,meteohub,2013-03-03 01:37:00,
2013-03-03 03:44:00,44.1,37.0,-100.00,NE,45,3.0,6.0,76,0.00,,,0.00,meteohub,2013-03-03 01:44:00,
2013-03-03 03:49:00,44.1,37.0,-100.00,NE,45,3.0,6.0,76,0.00,,,0.00,meteohub,2013-03-03 01:49:00,
2013-03-03 03:54:00,44.1,37.0,-100.00,NE,45,3.0,5.0,76,0.00,,,0.00,meteohub,2013-03-03 01:54:00,
2013-03-03 04:00:00,44.1,37.0,-100.00,NE,45,3.0,6.0,76,0.00,,,0.00,meteohub,2013-03-03 02:00:00,
2013-03-03 04:05:00,44.1,37.4,-100.00,NE,45,1.0,8.0,77,0.00,,,0.00,meteohub,2013-03-03 02:05:00,
2013-03-03 04:11:00,43.9,37.2,-100.00,NE,45,1.0,8.0,77,0.00,,,0.00,meteohub,2013-03-03 02:11:00,
2013-03-03 04:16:00,43.9,36.9,-100.00,NE,45,3.0,9.0,76,0.00,,,0.00,meteohub,2013-03-03 02:16:00,
2013-03-03 04:21:00,43.9,36.9,-100.00,NE,45,4.0,9.0,76,0.00,,,0.00,meteohub,2013-03-03 02:21:00,
2013-03-03 04:29:00,43.9,36.9,-100.00,NE,45,3.0,9.0,76,0.00,,,0.00,meteohub,2013-03-03 02:29:00,
2013-03-03 04:34:00,43.9,36.5,-100.00,NE,45,3.0,9.0,75,0.00,,,0.00,meteohub,2013-03-03 02:34:00,
2013-03-03 04:40:00,43.9,36.5,-100.00,NE,45,2.0,9.0,75,0.00,,,0.00,meteohub,2013-03-03 02:40:00,
2013-03-03 04:46:00,43.9,36.5,-100.00,NE,45,3.0,6.0,75,0.00,,,0.00,meteohub,2013-03-03 02:46:00,
2013-03-03 04:51:00,43.9,36.5,-100.00,NE,45,2.0,6.0,75,0.00,,,0.00,meteohub,2013-03-03 02:51:00,
2013-03-03 04:57:00,43.9,36.5,-100.00,NE,45,4.0,6.0,75,0.00,,,0.00,meteohub,2013-03-03 02:57:00,
2013-03-03 05:02:00,43.9,36.5,-100.00,NNE,22,1.0,6.0,75,0.00,,,0.00,meteohub,2013-03-03 03:02:00,
2013-03-03 05:07:00,43.9,36.5,-100.00,NE,45,4.0,6.0,75,0.00,,,0.00,meteohub,2013-03-03 03:07:00,
2013-03-03 05:12:00,43.9,36.5,-100.00,NE,45,3.0,6.0,75,0.00,,,0.00,meteohub,2013-03-03 03:12:00,
2013-03-03 05:17:00,43.9,36.5,-100.00,NE,45,4.0,6.0,75,0.00,,,0.00,meteohub,2013-03-03 03:17:00,
2013-03-03 05:22:00,43.9,36.5,-100.00,North,0,4.0,6.0,75,0.00,,,0.00,meteohub,2013-03-03 03:22:00,
2013-03-03 05:29:00,43.9,36.1,-100.00,NE,45,2.0,7.0,74,0.00,,,0.00,meteohub,2013-03-03 03:29:00,
2013-03-03 05:35:00,43.9,36.1,-100.00,NE,45,3.0,9.0,74,0.00,,,0.00,meteohub,2013-03-03 03:35:00,
2013-03-03 05:41:00,43.9,36.1,-100.00,NE,45,4.0,7.0,74,0.00,,,0.00,meteohub,2013-03-03 03:41:00,
2013-03-03 05:46:00,43.9,36.1,-100.00,NE,45,3.0,7.0,74,0.00,,,0.00,meteohub,2013-03-03 03:46:00,
2013-03-03 05:52:00,43.9,35.8,-100.00,NE,45,2.0,8.0,73,0.00,,,0.00,meteohub,2013-03-03 03:52:00,
2013-03-03 05:57:00,43.9,35.8,-100.00,NE,45,4.0,8.0,73,0.00,,,0.00,meteohub,2013-03-03 03:57:00,
2013-03-03 06:03:00,43.9,35.8,-100.00,NE,45,2.0,9.0,73,0.00,,,0.00,meteohub,2013-03-03 04:03:00,
2013-03-03 06:09:00,44.1,36.0,-100.00,NE,45,2.0,9.0,73,0.00,,,0.00,meteohub,2013-03-03 04:09:00,
2013-03-03 06:15:00,43.9,35.8,-100.00,East,90,5.0,9.0,73,0.00,,,0.00,meteohub,2013-03-03 04:15:00,
2013-03-03 06:20:00,43.9,35.8,-100.00,NE,45,8.0,10.0,73,0.00,,,0.00,meteohub,2013-03-03 04:20:00,
2013-03-03 06:25:00,43.9,35.8,-100.00,NE,45,4.0,10.0,73,0.00,,,0.00,meteohub,2013-03-03 04:25:00,
2013-03-03 06:32:00,43.9,35.8,-100.00,NE,45,0.0,8.0,73,0.00,,,0.00,meteohub,2013-03-03 04:32:00,
2013-03-03 06:37:00,43.9,35.8,-100.00,NE,45,4.0,8.0,73,0.00,,,0.00,meteohub,2013-03-03 04:37:00,
2013-03-03 06:43:00,43.9,35.8,-100.00,NE,45,3.0,8.0,73,0.00,,,0.00,meteohub,2013-03-03 04:43:00,
2013-03-03 06:48:00,43.9,35.8,-100.00,NE,45,5.0,8.0,73,0.00,,,0.00,meteohub,2013-03-03 04:48:00,
2013-03-03 06:54:00,43.9,35.8,-100.00,NE,45,0.0,7.0,73,0.00,,,0.00,meteohub,2013-03-03 04:54:00,
2013-03-03 06:59:00,43.9,36.1,-100.00,NE,45,5.0,5.0,74,0.00,,,0.00,meteohub,2013-03-03 04:59:00,
2013-03-03 07:00:00,43.9,35.8,-100.00,North,0,3.0,5.0,73,0.00,,,0.00,meteohub,2013-03-03 05:00:00,
2013-03-03 07:02:00,43.9,35.8,-100.00,NE,45,4.0,5.0,73,0.00,,,0.00,meteohub,2013-03-03 05:02:00,
2013-03-03 07:06:00,43.9,35.8,-100.00,NE,45,5.0,5.0,73,0.00,,,0.00,meteohub,2013-03-03 05:06:00,
2013-03-03 07:11:00,43.9,35.8,-100.00,NE,45,2.0,6.0,73,0.00,,,0.00,meteohub,2013-03-03 05:11:00,
2013-03-03 07:17:00,44.1,36.0,-100.00,NE,45,3.0,6.0,73,0.00,,,0.00,meteohub,2013-03-03 05:17:00,
2013-03-03 07:22:00,44.1,36.0,-100.00,NE,45,4.0,7.0,73,0.00,,,0.00,meteohub,2013-03-03 05:22:00,
2013-03-03 07:27:00,44.1,36.0,-100.00,NE,45,3.0,7.0,73,0.00,,,0.00,meteohub,2013-03-03 05:27:00,
2013-03-03 07:32:00,44.1,36.0,-100.00,NE,45,5.0,6.0,73,0.00,,,0.00,meteohub,2013-03-03 05:32:00,
2013-03-03 07:37:00,44.1,35.6,-100.00,NE,45,2.0,6.0,72,0.00,,,0.00,meteohub,2013-03-03 05:37:00,
2013-03-03 07:43:00,44.1,35.6,-100.00,NE,45,4.0,7.0,72,0.00,,,0.00,meteohub,2013-03-03 05:43:00,
2013-03-03 07:48:00,44.1,35.6,-100.00,NE,45,4.0,7.0,72,0.00,,,0.00,meteohub,2013-03-03 05:48:00,
2013-03-03 07:54:00,44.1,35.6,-100.00,NE,45,5.0,7.0,72,0.00,,,0.00,meteohub,2013-03-03 05:54:00,
2013-03-03 07:59:00,44.1,35.2,-100.00,NNE,22,3.0,8.0,71,0.00,,,0.00,meteohub,2013-03-03 05:59:00,